Regional Weather Roundup
Issued by NWS Upton, NY

Current Version | Previous Version | Text Only | Print | Product List | Glossary On
Versions: 1 2 3 4 5 6 7 8 9 10 11 12 13 14 15 16 17 18 19 20 21 22 23 24 25 26 27 28 29 30 31 32 33 34 35 36 37 38 39 40 41 42 43 44 45 46 47 48 49 50
077
ASUS41 KOKX 060708
RWROKX

REGIONAL WEATHER ROUNDUP
NATIONAL WEATHER SERVICE NEW YORK NY
200 AM EST TUE DEC 06 2016

NOTE: "FAIR" INDICATES FEW OR NO CLOUDS BELOW 12,000 FEET WITH NO
SIGNIFICANT WEATHER AND/OR OBSTRUCTIONS TO VISIBILITY.

NYZ071-072-176-178-NJZ106-104-060800-
NEW YORK CITY METRO AREA

CITY           SKY/WX    TMP DP  RH WIND       PRES   REMARKS
Central Park   CLEAR     40  29  64 VRB3      30.14R
Wall St Helipt SUNNY     43  31  62 W3        30.13S
Bronx Bot Gard NOT AVBL
LaGuardia APRT PTCLDY    44  31  60 NW9       30.12R
Kennedy INTL   PTCLDY    41  27  57 NW6       30.13R
Breezy Point     N/A     41 N/A N/A NW8         N/A
Newark/Liberty PTCLDY    38  31  76 W3        30.13R
Teterboro      CLEAR     38  29  70 NW3       30.12R
$$

NYZ177-179-078>081-060800-
LONG ISLAND NEW YORK

CITY           SKY/WX    TMP DP  RH WIND       PRES   REMARKS
Jones Beach      N/A     41 N/A N/A NW8         N/A
Matinecock PT  NOT AVBL
Farmingdale    CLEAR     36  27  69 CALM      30.12R
MacArthur/ISP  CLEAR     35  28  75 N3        30.11R
Shirley        CLEAR     30  27  88 CALM      30.11R
Westhampton    CLEAR     24  20  84 NW3       30.12R
Southampton    NOT AVBL
Bridgehampton  NOT AVBL
East Hampton     N/A     40  30  68 NW5       30.09R
Montauk          N/A     44  33  65 NW14G22   30.09R
$$

NYZ052-065-067-060800-
HUDSON VALLEY

CITY           SKY/WX    TMP DP  RH WIND       PRES   REMARKS
White Plains   CLEAR     38  27  64 W6        30.09R WCI  33
Newburgh       PTCLDY    32  28  86 W9        30.11R WCI  24
Montgomery     CLEAR     27  24  89 W7        30.10R WCI  19
Poughkeepsie   CLEAR     26  24  92 CALM      30.10R
Albany         CLOUDY    39  31  72 W13       30.10R WCI  31
$$

NJZ001-105-106-008-010-013-015-019>022-104-060800-
NEW JERSEY

CITY           SKY/WX    TMP DP  RH WIND       PRES   REMARKS
Newark/Liberty PTCLDY    38  31  76 W3        30.13R
Teterboro      CLEAR     38  29  70 NW3       30.12R
Caldwell       CLEAR     31  29  92 CALM      30.13R
Somerville     CLEAR     27  25  92 CALM      30.11S
Linden           N/A     36  31  82 CALM      30.12F
Sussex         CLEAR     25  24  96 CALM      30.11R
Andover          N/A     27  25  92 CALM      30.12R
Trenton        CLOUDY    34  29  82 N6        30.11F WCI  29
Millville      CLOUDY    38  33  82 NW3       30.13R
Atlantic City  CLOUDY    37  31  78 N5        30.12R WCI  33
Wrightstown    PTCLDY    34  29  82 CALM      30.09F
Toms River     PTCLDY    31  30  96 NW3       30.13S
Belmar         PTCLDY   N/A N/A N/A NW7       30.12S
$$

PAZ047>061-062-071-060800-
EASTERN PENNSYLVANIA

CITY           SKY/WX    TMP DP  RH WIND       PRES   REMARKS
Philadelphia   LGT RAIN  40  30  67 N6        30.14R
Allentown      CLOUDY    30  26  85 CALM      30.12F
Scranton       PTCLDY    29  26  89 CALM      30.10R
$$

CTZ002-004>006-009-010-012-RIZ004-006-007-MAZ004-011-015-060800-
SOUTHERN NEW ENGLAND
 IN CT

CITY           SKY/WX    TMP DP  RH WIND       PRES   REMARKS
Bradley INTL   PTCLDY    34  28  79 CALM      30.09R
Hartford       CLEAR     34  27  75 VRB3      30.10R
Danbury        PTCLDY    25  22  88 CALM      30.10R
Wtrbury/Oxford CLEAR     28  25  86 CALM      30.09R
Bridgeport     CLEAR     36  28  73 NW3       30.11R
Meriden        CLEAR     28  25  88 CALM      30.10R
New Haven      CLEAR     36  28  73 NW3       30.11R
Chester          N/A     36  28  75 W3        30.09R
Groton         CLEAR     39  31  72 NW7       30.09R WCI  34
Wilimantic     PTCLDY    28  26  92 NE5       30.09R WCI  23

 IN RI

CITY           SKY/WX    TMP DP  RH WIND       PRES   REMARKS
Providence     CLEAR     37  29  72 W9        30.07R WCI  30
Block Island   CLEAR     42  32  67 NW14G21   30.08R
Westerly       CLEAR     36  27  69 W5        30.09R WCI  32
 IN MA

CITY           SKY/WX    TMP DP  RH WIND       PRES   REMARKS
Boston         CLEAR     37  32  82 W8        30.06R WCI  31
Worcester      CLEAR     32  28  85 W13       30.03R WCI  22
Westfield      MOCLDY    38  32  79 CALM      30.07R
Provincetown   CLOUDY    41  33  73 NW20G25   30.04R
Nantucket      CLEAR     42  31  64 NW23      30.02R
$$

ANZ330-335-338-340-345-350-353-355-060800-
COASTAL MARINE OBSERVATIONS


STATION/POSITION TIME  SKY/WX   TEMP    WIND        PRES    VSBY  WAVE
                                AIR SEA DIR/SP/G                  HT/PER
                 (UTC)          (F)     (DEG/KT/KT) (MB)    (MI)  (FT/S)
NY HARB ENTRANCE 0650            46 53  320/ 16/ 19 1019.5          2/ 9
20 S FIRE ISLAND 0650            47 54  330/ 17/ 21 1019.1          3/ 4
GREAT SOUTH BAY  NOT AVBL
23 SSW MONTAUK P 0650            46 53  300/ 17/ 21 1019.0          3/ 4
15 E BARNEGAT LI 0630               53                N/A           3/12
HUDSON CANYON    0550            49 58              1017.9          6/ 5
KINGS POINT      0624            43 48              1019.6
EXECUTION ROCKS  0645            43     300/ 12/ 14   N/A
CENTRAL LI SOUND NOT AVBL
EASTERN LI SOUND NOT AVBL
ROBBINS REEF     0624            42     310/  7/  8 1020.3
$$


>>>>>>>>>>>>>>>>>>>>>>>>>>>> KEY <<<<<<<<<<<<<<<<<<<<<<<<<<<
>                                                          <
>     SKY/WX - Sky Condition/Present Weather               <
>     TMP    - Temperature in Fahrenheit                   <
>     DP     - Dew Point in Fahrenheit                     <
>     RH     - Relative Humidity in Percent                <
>     WIND   - Direction (from) and Speed in MPH           <
>     PRES   - Mean Sea Level Pressure (inches of Hg)      <
>     WCI    - Wind Chill Index                            <
>     VSB    - VISIBILITY IN MILES                         <
>     HX     - HEAT INDEX                                  <
>     TC     - TEMPERATURE IN CELSIUS                      <
>     VRB    - VARIABLE WIND DIRECTION                     <
>                                                          <
>>>>>>>>>>>>>>>>>>>>>>>>>>>> KEY <<<<<<<<<<<<<<<<<<<<<<<<<<<




USA.gov is the U.S. government's official web portal to all federal, state and local government web resources and services.